Overview Statistics Trail Chart Weather Telemetry Raw packets
 

This is the latest recevied weather packets stored in our database for station/object NI4CE-10. If no packets are shown the sender has not sent any weather packets the latest 10 day(s).

<< 138 139 140 141 142 143 144 >>
Time Temp. Humidity Pressure Rain* Wind** Luminosity Snow
1787858317 31.11° C 100% 1017.7 hPa 0 mm - - -
1787858187 31.11° C 100% 1017.7 hPa 0 mm - - -
1787858011 31.11° C 100% 1017.7 hPa 0 mm - - -
1787857711 30.56° C 100% 1017.8 hPa 0 mm - - -
1787857488 30.56° C 100% 1017.8 hPa 0 mm - - -
1787857411 30.56° C 100% 1017.8 hPa 0 mm - - -
1787857111 30.56° C 100% 1018 hPa 0 mm - - -
1787856811 30° C 100% 1018.1 hPa 0 mm - - -
1787856511 29.44° C 100% 1018.1 hPa 0 mm - - -
1787856326 29.44° C 100% 1018.3 hPa 0 mm - - -
1787856211 29.44° C 100% 1018.3 hPa 0 mm - - -
1787855912 29.44° C 100% 1018.4 hPa 0 mm - - -
1787855611 28.89° C 100% 1018.5 hPa 0 mm - - -
1787855456 28.33° C 100% 1018.6 hPa 0 mm - - -
1787855312 28.33° C 100% 1018.6 hPa 0 mm - - -
1787855012 28.33° C 100% 1018.4 hPa 0 mm - - -
1787854712 27.78° C 100% 1018.4 hPa 0 mm - - -
1787854564 27.78° C 100% 1018.5 hPa 0 mm - - -
1787854412 27.78° C 100% 1018.5 hPa 0 mm - - -
1787854112 27.22° C 100% 1018.6 hPa 0 mm - - -
1787853909 27.78° C 100% 1018.8 hPa 0 mm - - -
1787853812 27.78° C 100% 1018.8 hPa 0 mm - - -
1787853512 27.78° C 100% 1018.8 hPa 0 mm - - -
1787853356 28.33° C 100% 1018.7 hPa 0 mm - - -
1787853212 28.33° C 100% 1018.7 hPa 0 mm - - -

* Rain latest hour (hover to see other rain measurements)
** Current wind speed in m/s (hover to see current wind gust speed)